Flag for Germany Weather past 2 weeks in Eisenach, Thuringia, Germany

Now
56 °F

Light rain. Low clouds.


Feels Like: 55 °F
Forecast: 49 / 59 °F
Wind: 7 mph from West

Location: Meiningen

Current Time: Sep 5, 2015 at 3:25:33 PM

Latest Report: Sep 5, 2015 at 3:00 PM


Visibility: 12 mi

Pressure: 29.97 "Hg

Humidity: 74%

Dew point: 48 °F

Location of EisenachLocation

Historic Weather in Eisenach — Graph

°F

Eisenach temperature yesterday

Maximum temperature yesterday: 60 °F (at 2:00 PM)
Minimum temperature yesterday: 44 °F (at 7:00 AM)
Average temperature yesterday: 53 °F

Past Weeks' High & Low Weather Summary

 TemperatureHumidityPressure
High88 °F (Aug 31, 4:00 PM)100% (Aug 29, 2:00 AM)30.27 "Hg (Aug 29, 2:00 AM)
Low44 °F (Sep 4, 7:00 AM)30% (Aug 22, 3:00 PM)29.68 "Hg (Aug 24, 3:00 PM)
Average63 °F70%29.98 "Hg
* Reported Aug 21 2:00 PM — Sep 5 2:00 PM, Eisenach, Weather by CustomWeather, © 2015

Note: Actual official high and low records may vary slightly from our data, if they occured in-between our weather recording intervals... More about our weather records

Advertising

Eisenach weather history for previous 24 hours

 ConditionsComfort  
Time TempWeatherWind HumidityBarometerVisibility
2:00 PM
Sat, Sep 5
59 °FOvercast.5 mph64%29.96 "Hg12 mi
1:00 PM58 °FScattered clouds.5 mph64%29.97 "Hg6 mi
12:00 PM57 °FPassing clouds.5 mph67%29.97 "Hg12 mi
10:00 AM52 °FLow clouds.5 mph81%29.98 "Hg9 mi
9:00 AM50 °FOvercast.3 mph86%29.98 "Hg15 mi
8:00 AM47 °FScattered clouds.3 mph90%29.98 "Hg9 mi
7:00 AM46 °FSunny.2 mph87%29.97 "Hg19 mi
6:00 AM47 °FClear.3 mph85%29.96 "Hg31 mi
4:00 AM47 °FClear.5 mph83%29.97 "Hg34 mi
3:00 AM47 °FClear.3 mph80%29.97 "Hg43 mi
2:00 AM49 °FClear.3 mph75%29.98 "Hg43 mi
1:00 AM50 °FClear.3 mph73%29.98 "Hg43 mi
11:00 PM
Fri, Sep 4
51 °FClear.2 mph70%29.98 "Hg43 mi
10:00 PM52 °FClear.1 mph66%29.98 "Hg43 mi
9:00 PM54 °FClear.2 mph63%29.98 "Hg43 mi
8:00 PM56 °FPassing clouds.1 mph58%29.96 "Hg43 mi
7:00 PM58 °FOvercast.3 mph53%29.95 "Hg37 mi
6:00 PM59 °FPartly sunny.5 mph53%29.94 "Hg14 mi
5:00 PM59 °FOvercast.5 mph49%29.96 "Hg15 mi
4:00 PM59 °FOvercast.7 mph48%29.97 "Hg12 mi
3:00 PM60 °FOvercast.5 mph48%29.98 "Hg14 mi
Weather by CustomWeather, © 2015

See weather overviewHow to use our weather pages